�N����,����,�~����,�C��,���x,�C��,����,���ϕ���,�ő�u�ԕ���,�ő厞����,���˗�,�I�_���x,�n�����x,�ő啗���N��,DTYPE
"23/02/03","00:10",0.0,2.7,85.5,1015.9,298.4,1.8,1.9,300.4,0.00,0.6,5.9,"00:05:32",1
"23/02/03","00:20",0.0,2.4,85.6,1015.9,294.4,1.2,1.7,299.1,0.00,0.3,5.7,"00:13:28",1
"23/02/03","00:30",0.0,2.1,85.8,1015.6,307.6,1.3,1.7,321.6,0.00,0.0,5.7,"00:27:40",1
"23/02/03","00:40",0.0,1.9,86.2,1015.9,288.0,1.5,2.1,301.6,0.00,-0.1,5.8,"00:39:24",1
"23/02/03","00:50",0.0,1.9,86.7,1015.4,295.7,1.6,2.1,309.4,0.00,0.0,5.8,"00:41:36",1
"23/02/03","01:00",0.0,2.1,87.2,1015.4,308.8,1.5,2.2,318.1,0.00,0.2,5.8,"00:51:38",1
"23/02/03","01:10",0.0,2.2,87.5,1015.9,302.9,1.7,2.4,316.5,0.00,0.4,5.8,"01:05:42",1
"23/02/03","01:20",0.0,2.4,87.5,1015.6,293.9,1.8,2.7,311.8,0.00,0.6,5.5,"01:11:10",1
"23/02/03","01:30",0.0,2.6,87.4,1015.4,275.8,1.6,1.9,265.7,0.00,0.8,5.9,"01:28:18",1
"23/02/03","01:40",0.0,2.6,87.2,1015.4,287.1,1.3,2.0,245.7,0.00,0.7,5.7,"01:31:06",1
"23/02/03","01:50",0.0,2.6,86.9,1015.2,289.9,1.6,1.8,301.6,0.00,0.7,5.6,"01:46:34",1
"23/02/03","02:00",0.0,2.3,86.8,1015.2,303.8,2.0,2.4,307.5,0.00,0.4,5.7,"01:59:26",1
"23/02/03","02:10",0.0,2.1,87.0,1015.4,290.6,1.7,2.4,314.1,0.00,0.2,5.6,"02:07:56",1
"23/02/03","02:20",0.0,2.0,87.2,1014.9,304.8,1.5,2.2,323.0,0.00,0.1,5.6,"02:17:58",1
"23/02/03","02:30",0.0,2.1,87.5,1014.9,299.2,1.8,2.6,320.1,0.00,0.3,5.7,"02:25:40",1
"23/02/03","02:40",0.0,2.3,87.6,1015.4,298.7,2.1,2.7,321.5,0.00,0.5,5.7,"02:31:02",1
"23/02/03","02:50",0.0,2.4,87.6,1015.4,315.6,2.1,2.9,319.9,0.00,0.6,5.6,"02:41:32",1
"23/02/03","03:00",0.0,2.5,87.5,1015.2,309.4,2.1,2.7,309.2,0.00,0.7,5.6,"02:52:44",1
"23/02/03","03:10",0.0,2.5,87.3,1015.2,322.8,2.3,3.4,327.3,0.00,0.6,5.4,"03:02:02",1
"23/02/03","03:20",0.0,2.4,87.3,1015.2,319.9,1.8,2.5,310.1,0.00,0.5,5.5,"03:10:56",1
"23/02/03","03:30",0.0,2.5,87.3,1015.2,310.1,2.3,3.2,311.0,0.00,0.6,5.3,"03:25:08",1
"23/02/03","03:40",0.0,2.5,87.3,1014.7,327.1,1.6,2.5,328.6,0.00,0.6,5.5,"03:37:18",1
"23/02/03","03:50",0.0,2.4,87.3,1015.2,336.8,1.6,2.4,325.7,0.00,0.5,5.7,"03:46:54",1
"23/02/03","04:00",0.0,2.4,87.3,1014.7,316.6,1.7,2.0,325.2,0.00,0.5,5.5,"03:50:56",1
"23/02/03","04:10",0.0,2.3,87.4,1014.7,329.9,2.1,2.4,317.0,0.00,0.5,5.7,"04:08:28",1
"23/02/03","04:20",0.0,2.1,87.6,1014.5,336.3,2.0,3.1,341.2,0.00,0.3,5.4,"04:16:26",1
"23/02/03","04:30",0.0,1.9,88.0,1014.5,320.7,2.2,3.3,338.6,0.00,0.2,5.4,"04:20:20",1
"23/02/03","04:40",0.0,1.7,88.2,1014.5,287.2,1.1,3.1,295.1,0.00,0.0,5.7,"04:32:54",1
"23/02/03","04:50",0.0,1.6,88.5,1014.0,274.7,1.1,2.6,314.2,0.00,-0.1,5.5,"04:48:12",1
"23/02/03","05:00",0.0,1.4,88.9,1014.0,311.1,2.0,2.4,289.3,0.00,-0.2,5.4,"04:58:58",1
"23/02/03","05:10",0.0,1.4,89.2,1014.2,333.3,1.7,2.1,327.4,0.00,-0.1,5.3,"05:00:50",1
"23/02/03","05:20",0.0,1.3,89.5,1014.0,329.8,1.7,2.2,312.2,0.00,-0.2,5.4,"05:13:52",1
"23/02/03","05:30",0.0,1.4,89.8,1013.8,321.8,2.3,3.3,338.3,0.00,0.0,5.3,"05:26:14",1
"23/02/03","05:40",0.0,1.6,89.8,1013.5,325.4,3.1,4.0,326.4,0.00,0.1,5.2,"05:35:00",1
"23/02/03","05:50",0.0,1.6,89.9,1014.0,324.8,2.5,4.1,338.9,0.00,0.2,5.2,"05:41:56",1
"23/02/03","06:00",0.0,1.5,89.8,1014.0,316.0,2.3,4.0,311.1,0.00,0.1,5.4,"05:50:16",1
"23/02/03","06:10",0.0,1.3,90.0,1013.8,328.7,2.0,2.5,334.0,0.00,-0.1,5.2,"06:08:30",1
"23/02/03","06:20",0.0,1.3,90.1,1014.0,329.2,2.3,2.7,337.0,0.00,-0.1,5.2,"06:12:36",1
"23/02/03","06:30",0.0,1.2,90.3,1013.8,329.3,1.6,2.9,335.9,0.00,-0.2,5.4,"06:20:22",1
"23/02/03","06:40",0.0,1.1,90.4,1013.8,328.3,1.3,2.5,333.8,0.00,-0.3,5.3,"06:39:48",1
"23/02/03","06:50",0.0,1.2,90.5,1013.8,329.3,2.2,2.7,330.0,0.00,-0.1,5.2,"06:42:22",1
"23/02/03","07:00",0.0,1.1,90.6,1014.2,315.1,2.2,2.7,321.7,0.00,-0.2,5.2,"06:54:46",1
"23/02/03","07:10",0.0,1.1,90.8,1014.0,322.3,2.3,2.7,335.0,0.00,-0.2,5.2,"07:03:46",1
"23/02/03","07:20",0.0,0.9,90.9,1013.8,327.3,2.0,2.5,322.1,0.00,-0.4,5.0,"07:12:04",1
"23/02/03","07:30",0.0,0.6,91.2,1014.0,308.3,1.8,2.9,309.1,0.00,-0.6,5.1,"07:23:36",1
"23/02/03","07:40",0.0,0.6,91.4,1014.2,311.3,1.7,2.4,322.6,0.00,-0.6,5.2,"07:32:48",1
"23/02/03","07:50",0.0,0.5,91.6,1014.2,293.2,1.2,1.9,321.6,0.00,-0.7,5.1,"07:42:16",1
"23/02/03","08:00",0.0,0.6,91.9,1013.8,287.8,0.5,1.3,319.0,0.00,-0.5,5.2,"07:57:28",1
"23/02/03","08:10",0.0,0.6,92.1,1013.8,298.0,1.2,1.7,274.4,0.00,-0.5,5.2,"08:05:20",1
"23/02/03","08:20",0.0,0.7,92.4,1014.2,294.7,1.2,1.8,310.5,0.01,-0.3,5.0,"08:11:04",1
"23/02/03","08:30",0.0,1.1,92.6,1014.2,278.0,1.0,1.2,303.4,0.03,0.1,5.1,"08:25:58",1
"23/02/03","08:40",0.0,1.5,92.7,1014.0,278.5,0.6,1.6,322.3,0.04,0.5,5.0,"08:38:04",1
"23/02/03","08:50",0.0,1.9,92.7,1014.5,310.9,1.0,1.7,329.0,0.04,0.9,5.0,"08:44:18",1
"23/02/03","09:00",0.0,2.1,92.8,1014.7,239.7,0.5,0.8,286.4,0.05,1.1,5.2,"08:50:36",1
"23/02/03","09:10",0.0,2.8,92.8,1014.7,261.5,0.6,1.2,288.0,0.08,1.8,5.2,"09:07:36",1
"23/02/03","09:20",0.0,3.1,92.4,1014.9,285.8,1.1,2.2,313.3,0.05,2.0,5.0,"09:12:08",1
"23/02/03","09:30",0.0,3.2,92.2,1014.7,262.6,0.7,1.4,251.6,0.06,2.1,5.2,"09:20:32",1
"23/02/03","09:40",0.0,3.2,91.7,1014.7,265.6,0.6,1.4,283.2,0.08,2.0,4.9,"09:33:44",1
"23/02/03","09:50",0.0,3.7,91.6,1015.4,287.8,1.3,2.5,318.6,0.12,2.5,5.2,"09:47:44",1
"23/02/03","10:00",0.0,3.9,90.7,1015.6,265.4,1.0,2.2,247.6,0.10,2.6,5.0,"09:54:00",1
"23/02/03","10:10",0.0,4.0,89.8,1015.6,262.4,1.3,2.2,263.8,0.09,2.5,5.1,"10:07:44",1
"23/02/03","10:20",0.0,4.2,88.8,1015.6,251.1,1.5,2.6,258.4,0.11,2.6,5.1,"10:17:52",1
"23/02/03","10:30",0.0,4.3,87.5,1015.6,222.2,1.3,2.5,171.3,0.12,2.5,5.2,"10:29:44",1
"23/02/03","10:40",0.0,4.2,86.6,1015.9,191.2,1.6,3.2,149.1,0.11,2.2,5.2,"10:38:32",1
"23/02/03","10:50",0.0,4.5,85.6,1015.6,228.9,1.3,2.5,256.6,0.12,2.3,5.2,"10:42:56",1
"23/02/03","11:00",0.0,4.5,84.4,1015.6,211.2,1.3,3.2,238.1,0.12,2.1,5.1,"10:52:48",1
"23/02/03","11:10",0.0,4.2,83.8,1015.4,178.3,1.3,2.4,124.3,0.07,1.7,5.3,"11:04:56",1
"23/02/03","11:20",0.0,4.4,83.6,1015.6,171.2,0.7,1.7,135.1,0.09,1.9,5.4,"11:11:44",1
"23/02/03","11:30",0.0,4.5,83.2,1015.2,176.6,0.7,1.3,124.9,0.09,1.9,5.2,"11:20:56",1
"23/02/03","11:40",0.0,4.7,82.7,1015.2,132.2,0.5,1.1,184.1,0.10,2.1,5.3,"11:33:04",1
"23/02/03","11:50",0.0,4.8,82.1,1015.2,174.6,0.7,1.4,337.4,0.10,2.0,5.3,"11:41:12",1
"23/02/03","12:00",0.0,5.0,81.6,1015.4,310.8,0.6,1.2,98.5,0.08,2.2,5.5,"11:55:36",1
"23/02/03","12:10",0.0,5.0,81.0,1014.9,89.4,0.5,1.2,296.8,0.09,2.1,5.5,"12:00:02",1
"23/02/03","12:20",0.0,5.1,80.5,1014.7,238.6,0.8,1.7,270.3,0.08,2.1,5.6,"12:16:32",1
"23/02/03","12:30",0.0,5.2,80.0,1014.9,202.1,0.5,1.1,296.2,0.06,2.1,5.4,"12:22:48",1
"23/02/03","12:40",0.0,5.1,79.7,1014.2,125.4,0.8,2.2,305.6,0.08,1.9,5.5,"12:38:56",1
"23/02/03","12:50",0.0,5.4,79.5,1014.2,299.8,1.0,2.6,308.4,0.08,2.2,5.4,"12:44:32",1
"23/02/03","13:00",0.0,5.4,78.9,1014.0,268.5,1.3,2.6,263.4,0.08,2.1,5.3,"12:56:40",1
"23/02/03","13:10",0.0,5.5,78.3,1014.0,324.2,1.0,2.8,325.7,0.08,2.1,5.7,"13:07:44",1
"23/02/03","13:20",0.0,5.7,77.6,1013.5,306.1,1.7,3.2,327.1,0.09,2.1,5.5,"13:13:20",1
"23/02/03","13:30",0.0,5.8,76.7,1013.5,267.4,1.7,4.2,260.1,0.07,2.1,5.5,"13:20:16",1
"23/02/03","13:40",0.0,5.9,75.6,1013.5,278.9,2.1,3.5,329.2,0.09,2.0,5.6,"13:34:56",1
"23/02/03","13:50",0.0,6.0,74.3,1013.0,317.9,3.0,4.4,318.1,0.11,1.8,5.6,"13:44:48",1
"23/02/03","14:00",0.0,6.1,72.9,1013.0,292.8,2.3,4.2,257.2,0.12,1.7,5.6,"13:55:12",1
"23/02/03","14:10",0.0,6.4,71.9,1013.3,299.8,2.5,4.3,251.0,0.14,1.7,5.9,"14:04:32",1
"23/02/03","14:20",0.0,6.5,71.4,1013.3,285.2,2.5,4.3,296.7,0.13,1.7,5.8,"14:18:02",1
"23/02/03","14:30",0.0,6.6,71.5,1013.0,274.0,2.3,3.9,290.0,0.11,1.9,5.6,"14:21:00",1
"23/02/03","14:40",0.0,6.6,70.7,1013.0,292.1,2.7,4.8,315.5,0.10,1.7,5.7,"14:37:52",1
"23/02/03","14:50",0.0,6.5,70.2,1012.8,305.5,2.6,4.4,330.1,0.09,1.5,5.9,"14:46:00",1
"23/02/03","15:00",0.0,6.4,69.8,1013.0,287.9,2.7,4.2,321.5,0.09,1.3,5.9,"14:50:56",1
"23/02/03","15:10",0.0,6.6,70.1,1012.8,292.9,2.6,4.2,281.0,0.08,1.6,6.0,"15:02:48",1
"23/02/03","15:20",0.0,6.6,70.2,1012.8,297.1,2.8,4.2,321.9,0.08,1.6,5.8,"15:16:58",1
"23/02/03","15:30",0.0,6.5,70.6,1013.3,295.7,3.0,5.5,330.4,0.08,1.6,6.0,"15:22:02",1
"23/02/03","15:40",0.0,6.6,71.0,1013.3,287.9,2.6,4.4,268.0,0.08,1.8,6.0,"15:34:40",1
"23/02/03","15:50",0.0,6.6,71.3,1013.3,285.0,2.8,5.0,295.9,0.08,1.8,5.8,"15:46:32",1
"23/02/03","16:00",0.0,6.4,71.4,1013.5,290.0,3.2,5.1,298.4,0.07,1.6,6.0,"15:52:28",1
"23/02/03","16:10",0.0,6.5,71.7,1013.3,302.6,2.8,4.4,324.8,0.08,1.8,5.8,"16:00:32",1
"23/02/03","16:20",0.0,6.4,71.8,1013.5,296.0,3.0,4.7,300.8,0.07,1.7,5.9,"16:12:00",1
"23/02/03","16:30",0.0,6.4,71.8,1013.5,295.3,3.0,4.7,301.1,0.06,1.7,6.1,"16:20:02",1
"23/02/03","16:40",0.0,6.3,71.7,1013.5,301.2,3.0,4.5,317.6,0.06,1.6,6.0,"16:32:40",1
"23/02/03","16:50",0.0,6.2,70.8,1013.5,283.7,2.8,4.2,266.5,0.04,1.3,6.2,"16:44:14",1
"23/02/03","17:00",0.0,6.3,70.2,1013.3,298.4,2.3,3.3,296.2,0.03,1.3,6.2,"16:50:32",1
"23/02/03","17:10",0.0,6.1,69.8,1013.3,296.0,2.1,3.7,297.0,0.02,1.0,6.0,"17:07:44",1
"23/02/03","17:20",0.0,6.3,68.0,1013.5,336.7,1.5,2.4,319.3,0.01,0.9,6.0,"17:10:56",1
"23/02/03","17:30",0.0,6.2,66.8,1013.3,344.5,1.5,2.9,351.5,0.01,0.5,6.1,"17:29:20",1
"23/02/03","17:40",0.0,6.2,65.5,1013.3,342.1,1.6,4.1,344.7,0.00,0.3,6.2,"17:35:28",1
"23/02/03","17:50",0.0,5.9,66.4,1013.3,347.5,2.0,3.7,350.1,0.00,0.2,6.1,"17:41:28",1
"23/02/03","18:00",0.0,5.8,66.9,1013.3,343.4,2.2,4.0,51.7,0.00,0.2,6.0,"17:50:32",1
"23/02/03","18:10",0.0,5.5,67.7,1013.3,330.2,2.7,4.0,321.2,0.00,0.0,6.2,"18:01:20",1
"23/02/03","18:20",0.0,5.3,68.4,1013.3,329.7,2.2,3.5,339.3,0.00,0.0,6.1,"18:10:40",1
"23/02/03","18:30",0.0,5.0,69.9,1013.3,300.6,1.6,2.1,307.2,0.00,0.0,5.8,"18:29:32",1
"23/02/03","18:40",0.0,4.8,71.5,1013.3,296.3,1.0,1.6,287.1,0.00,0.1,6.1,"18:30:10",1
"23/02/03","18:50",0.0,4.6,72.6,1012.8,308.2,1.1,1.8,321.3,0.00,0.1,6.2,"18:48:12",1
"23/02/03","19:00",0.0,4.6,74.3,1013.0,305.4,1.7,2.2,318.9,0.00,0.5,6.1,"18:53:00",1
"23/02/03","19:10",0.0,4.4,75.4,1013.3,294.9,1.6,1.9,319.1,0.00,0.5,5.9,"19:09:42",1
"23/02/03","19:20",0.0,4.4,76.1,1013.5,296.2,1.5,2.5,262.9,0.00,0.6,6.1,"19:12:10",1
"23/02/03","19:30",0.0,4.2,76.6,1013.0,292.9,1.5,2.1,316.5,0.00,0.5,6.2,"19:22:00",1
"23/02/03","19:40",0.0,4.0,77.0,1013.3,314.8,1.7,2.9,323.9,0.00,0.4,6.0,"19:34:42",1
"23/02/03","19:50",0.0,3.6,77.6,1013.3,298.8,0.8,0.9,291.4,0.00,0.1,6.1,"19:40:58",1
"23/02/03","20:00",0.0,3.2,78.3,1013.0,333.6,1.3,1.6,328.9,0.00,-0.2,6.0,"19:59:42",1
"23/02/03","20:10",0.0,2.7,79.5,1013.0,323.0,1.7,2.4,321.7,0.00,-0.4,6.0,"20:09:58",1
"23/02/03","20:20",0.0,2.6,80.4,1013.0,335.5,2.5,3.3,338.3,0.00,-0.4,6.1,"20:14:54",1
"23/02/03","20:30",0.0,2.4,81.2,1013.3,328.0,2.2,3.2,321.5,0.00,-0.4,6.0,"20:27:38",1
"23/02/03","20:40",0.0,2.3,82.0,1013.3,326.4,2.5,4.2,325.2,0.00,-0.4,5.9,"20:38:50",1
"23/02/03","20:50",0.0,2.3,82.5,1013.3,326.0,2.6,3.3,327.9,0.00,-0.3,5.9,"20:42:32",1
"23/02/03","21:00",0.0,2.1,83.1,1013.3,331.1,2.5,3.6,331.6,0.00,-0.4,6.0,"20:59:56",1
"23/02/03","21:10",0.0,2.1,83.5,1012.6,304.7,2.6,4.1,320.3,0.00,-0.4,5.9,"21:00:40",1
"23/02/03","21:20",0.0,1.7,84.0,1012.8,282.4,1.5,2.0,321.7,0.00,-0.7,5.6,"21:10:14",1
"23/02/03","21:30",0.0,1.5,84.6,1012.8,306.8,1.6,2.6,335.0,0.00,-0.8,5.8,"21:22:10",1
"23/02/03","21:40",0.0,1.3,85.2,1012.8,295.9,0.8,2.6,317.0,0.00,-0.9,5.9,"21:30:02",1
"23/02/03","21:50",0.0,0.6,86.0,1012.8,332.5,2.0,2.7,316.6,0.00,-1.4,5.6,"21:40:08",1
"23/02/03","22:00",0.0,0.2,86.8,1012.1,309.2,1.3,2.1,323.2,0.00,-1.7,5.7,"21:51:44",1
"23/02/03","22:10",0.0,0.4,87.8,1012.8,312.7,1.7,2.4,323.4,0.00,-1.3,5.9,"22:09:04",1
"23/02/03","22:20",0.0,0.5,88.4,1012.6,317.5,2.0,3.1,317.4,0.00,-1.2,5.6,"22:11:04",1
"23/02/03","22:30",0.0,0.4,88.9,1012.3,308.0,2.0,2.7,315.9,0.00,-1.2,5.7,"22:20:32",1
"23/02/03","22:40",0.0,0.5,89.5,1012.6,308.9,1.6,2.6,336.0,0.00,-1.0,5.7,"22:37:28",1
"23/02/03","22:50",0.0,0.5,89.9,1012.8,295.1,1.6,2.2,309.2,0.00,-0.9,5.7,"22:47:12",1
"23/02/03","23:00",0.0,0.1,90.1,1012.8,335.1,1.8,2.6,341.0,0.00,-1.3,5.7,"22:59:44",1
"23/02/03","23:10",0.0,0.0,90.7,1013.0,344.9,1.3,2.2,349.3,0.00,-1.3,5.6,"23:03:44",1
"23/02/03","23:20",0.0,-0.4,91.0,1012.6,311.8,0.8,1.9,333.4,0.00,-1.6,5.5,"23:18:56",1
"23/02/03","23:30",0.0,-0.7,91.5,1012.3,332.7,1.2,2.1,330.5,0.00,-1.9,5.4,"23:25:52",1
"23/02/03","23:40",0.0,-0.8,91.9,1012.8,275.4,0.8,1.7,253.7,0.00,-1.9,5.3,"23:38:48",1
"23/02/03","23:50",0.0,-0.3,92.2,1012.6,268.9,1.6,2.0,262.5,0.00,-1.4,5.4,"23:46:40",1
"23/02/03","24:00",0.0,-0.3,92.4,1012.1,317.9,1.6,2.0,319.7,0.00,-1.3,5.4,"23:59:04",1
